M I D A S
Marine Information and Data Acquisition System
Tripno 876 of the Zeeleeuw from 2005-04-04 09:42:55 to 2005-04-04 11:08:42
Back to CruiseResearch ActivitiesStationsMapUnderway DataData graphs

EquipmentUnitsComments
TimeDGPSUTC
LatitudeDGPSDM.mWGS84
LongitudeDGPSDM.mWGS84
SpeedMeteo Stationm/sRelative wind speed
DirectionMeteo StationdegRelative wind direction
TemperatureMeteo Stationdeg CelciusAir temperature
PressureMeteo StationPaAtmospheric pressure
HumidityMeteo Station%Relative humidity
Missing or incorrect values are displayed as -999
Metereological data collected by the RV Zeeleeuw from 2005-04-04 09:26:23 to 2005-04-04 11:18:58
Time Latitude Longitude Speed Direction Temperature Pressure Humidity
2005-04-04 09:27 51°13.618 2°56.019 5.5 102 13.7 102040 69
2005-04-04 09:28 51°13.606 2°56.041 5.6 89 13.7 102040 69
2005-04-04 09:29 51°13.572 2°56.101 7 66 13.7 102040 70
2005-04-04 09:30 51°13.545 2°56.174 2.7 51 13.7 102040 69
2005-04-04 09:31 51°13.544 2°56.214 4.3 180 13.7 102040 69
2005-04-04 09:32 51°13.547 2°56.217 3.9 167 13.7 102050 70
2005-04-04 09:33 51°13.542 2°56.219 3.2 213 13.7 102050 69
2005-04-04 09:34 51°13.54 2°56.226 2.4 242 13.8 102040 69
2005-04-04 09:35 51°13.533 2°56.228 1.9 288 13.8 102040 70
2005-04-04 09:36 51°13.547 2°56.193 3.8 330 13.9 102050 69
2005-04-04 09:37 51°13.567 2°56.126 4.8 36 14 102030 69
2005-04-04 09:38 51°13.602 2°56.034 5.4 315 14.1 102050 69
2005-04-04 09:39 51°13.647 2°55.919 5.4 323 14 102040 69
2005-04-04 09:40 51°13.711 2°55.781 6.1 316 14 102030 69
2005-04-04 09:41 51°13.809 2°55.652 1.6 287 14 102040 69
2005-04-04 09:42 51°13.926 2°55.563 2.8 304 14.1 102030 69
2005-04-04 09:43 51°14.049 2°55.473 3.9 296 14.1 102030 68
2005-04-04 09:44 51°14.191 2°55.358 7.1 341 14.1 102030 68
2005-04-04 09:45 51°14.319 2°55.161 8.3 319 14.1 102020 68
2005-04-04 09:46 51°14.441 2°54.905 10.2 329 13.9 102000 69
2005-04-04 09:47 51°14.559 2°54.636 10.9 324 13.6 102000 70
2005-04-04 09:48 51°14.666 2°54.365 9.3 327 13.4 102010 71
2005-04-04 09:49 51°14.752 2°54.078 11.2 331 13.2 102010 71
2005-04-04 09:50 51°14.806 2°53.771 12 335 13 102000 72
2005-04-04 09:51 51°14.818 2°53.449 12 337 12.8 102000 73
2005-04-04 09:52 51°14.809 2°53.129 11.3 342 12.5 102010 73
2005-04-04 09:53 51°14.794 2°52.803 11.5 345 12.3 102010 74
2005-04-04 09:54 51°14.78 2°52.48 11.9 341 12.1 102010 75
2005-04-04 09:55 51°14.786 2°52.22 8 331 12 102020 76
2005-04-04 09:56 51°14.773 2°52.087 7.5 348 11.8 102020 77
2005-04-04 09:57 51°14.748 2°52.007 7.8 346 11.8 102030 78
2005-04-04 09:58 51°14.734 2°51.941 7.5 341 11.7 102030 79
2005-04-04 09:59 51°14.723 2°51.868 7.2 336 11.8 102020 80
2005-04-04 10:00 51°14.721 2°51.789 7.4 334 11.8 102030 80
2005-04-04 10:01 51°14.717 2°51.711 7.1 341 11.7 102030 80
2005-04-04 10:02 51°14.704 2°51.641 8.1 346 11.6 102030 80
2005-04-04 10:03 51°14.686 2°51.569 7.7 346 11.6 102030 80
2005-04-04 10:04 51°14.669 2°51.497 8.3 344 11.6 102030 81
2005-04-04 10:05 51°14.653 2°51.425 8.7 343 11.6 102030 81
2005-04-04 10:06 51°14.641 2°51.35 8.4 339 11.6 102030 81
2005-04-04 10:07 51°14.627 2°51.276 8.6 344 11.6 102030 81
2005-04-04 10:08 51°14.611 2°51.202 7.6 343 11.6 102030 81
2005-04-04 10:09 51°14.596 2°51.128 7.8 343 11.5 102030 81
2005-04-04 10:10 51°14.582 2°51.052 7.8 339 11.4 102030 81
2005-04-04 10:11 51°14.57 2°50.975 7.8 338 11.4 102030 82
2005-04-04 10:12 51°14.56 2°50.897 8.2 339 11.4 102030 82
2005-04-04 10:13 51°14.553 2°50.819 8.4 338 11.4 102030 82
2005-04-04 10:14 51°14.542 2°50.743 7.6 343 11.4 102030 83
2005-04-04 10:15 51°14.523 2°50.673 8.1 351 11.5 102030 83
2005-04-04 10:16 51°14.502 2°50.605 8.1 345 11.5 102020 83
2005-04-04 10:17 51°14.485 2°50.531 7.6 343 11.5 102030 83
2005-04-04 10:18 51°14.469 2°50.457 8.4 344 11.5 102020 83
2005-04-04 10:19 51°14.451 2°50.386 8.7 344 11.5 102030 83
2005-04-04 10:20 51°14.43 2°50.319 8.5 345 11.5 102030 83
2005-04-04 10:21 51°14.408 2°50.253 7.9 345 11.5 102030 83
2005-04-04 10:22 51°14.386 2°50.186 7.9 341 11.4 102030 83
2005-04-04 10:23 51°14.367 2°50.113 7.6 337 11.4 102030 83
2005-04-04 10:24 51°14.352 2°50.038 8.1 336 11.3 102030 84
2005-04-04 10:25 51°14.335 2°49.965 7.9 342 11.3 102030 84
2005-04-04 10:26 51°14.312 2°49.893 8.2 346 11.4 102030 85
2005-04-04 10:27 51°14.289 2°49.823 7.8 343 11.4 102030 85
2005-04-04 10:28 51°14.269 2°49.745 7.6 338 11.3 102030 85
2005-04-04 10:29 51°14.253 2°49.668 8.2 336 11.3 102030 85
2005-04-04 10:30 51°14.235 2°49.591 7.7 340 11.3 102030 85
2005-04-04 10:31 51°14.22 2°49.51 7.6 334 11.2 102030 85
2005-04-04 10:32 51°14.21 2°49.423 7.6 323 11.2 102030 86
2005-04-04 10:33 51°14.215 2°49.327 7.9 316 11.2 102030 86
2005-04-04 10:34 51°14.239 2°49.232 6.6 300 11.2 102030 86
2005-04-04 10:35 51°14.275 2°49.161 6.6 285 11.2 102040 86
2005-04-04 10:36 51°14.309 2°49.116 6.8 279 11.2 102030 86
2005-04-04 10:37 51°14.337 2°49.083 5.9 280 11.1 102040 86
2005-04-04 10:38 51°14.361 2°49.058 6.3 278 11.1 102040 86
2005-04-04 10:39 51°14.384 2°49.036 6 281 11.1 102040 87
2005-04-04 10:40 51°14.474 2°49.001 2 235 11.1 102040 87
2005-04-04 10:41 51°14.594 2°49.15 1.7 91 11 102040 87
2005-04-04 10:42 51°14.737 2°49.371 3 83 11 102040 87
2005-04-04 10:43 51°14.888 2°49.642 3.5 64 11 102040 87
2005-04-04 10:44 51°15.025 2°49.939 3.9 64 10.9 102040 88
2005-04-04 10:45 51°15.122 2°50.274 4.6 76 10.8 102030 88
2005-04-04 10:46 51°15.219 2°50.614 4.9 62 10.8 102030 89
2005-04-04 10:47 51°15.317 2°50.954 5 80 10.8 102030 89
2005-04-04 10:48 51°15.414 2°51.293 4.4 71 10.8 102030 89
2005-04-04 10:49 51°15.512 2°51.63 5.4 88 10.8 102040 89
2005-04-04 10:50 51°15.608 2°51.966 4.7 82 10.9 102040 89
2005-04-04 10:51 51°15.707 2°52.308 4 72 10.9 102030 89
2005-04-04 10:52 51°15.806 2°52.648 4.1 74 10.8 102040 89
2005-04-04 10:53 51°15.905 2°52.988 4.1 69 10.8 102040 89
2005-04-04 10:54 51°16.005 2°53.325 4.4 72 10.7 102040 90
2005-04-04 10:55 51°16.106 2°53.669 4.7 73 10.8 102040 90
2005-04-04 10:56 51°16.204 2°54.008 4.4 71 10.8 102040 90
2005-04-04 10:57 51°16.226 2°54.353 10.4 50 10.8 102030 90
2005-04-04 10:58 51°16.031 2°54.465 14 21 10.9 102000 91
2005-04-04 10:59 51°15.817 2°54.434 14.8 19 11 102020 92
2005-04-04 11:00 51°15.607 2°54.364 14.8 18 11.2 102020 92
2005-04-04 11:01 51°15.397 2°54.291 14.5 18 11.3 102020 92
2005-04-04 11:02 51°15.184 2°54.216 13.7 20 11.4 102020 92
2005-04-04 11:03 51°14.979 2°54.148 13 19 11.3 102020 92
2005-04-04 11:04 51°14.82 2°54.233 10.7 50 11.4 102010 92
2005-04-04 11:05 51°14.666 2°54.423 11.8 47 11.5 102020 92
2005-04-04 11:06 51°14.533 2°54.662 12.2 57 11.6 102010 92
2005-04-04 11:07 51°14.423 2°54.906 9.6 55 11.8 102020 92
2005-04-04 11:08 51°14.327 2°55.134 7 45 11.9 102020 92
2005-04-04 11:09 51°14.237 2°55.305 6.3 47 12.1 102030 92
2005-04-04 11:10 51°14.141 2°55.41 8.5 33 12.3 102030 92
2005-04-04 11:11 51°14.04 2°55.484 8 29 12.4 102020 91
2005-04-04 11:12 51°13.946 2°55.551 5.6 346 12.4 102030 90
2005-04-04 11:13 51°13.853 2°55.619 7.3 23 12.4 102030 90
2005-04-04 11:14 51°13.764 2°55.705 5 49 12.5 102030 90
2005-04-04 11:15 51°13.695 2°55.83 5.6 49 12.5 102030 89
2005-04-04 11:16 51°13.638 2°55.957 6.7 9 12.5 102040 89
2005-04-04 11:17 51°13.608 2°56.05 4.2 58 12.5 102040 88
2005-04-04 11:18 51°13.595 2°56.102 5.7 111 12.5 102040 89